Flag for U.S.A. Weather past 2 weeks in Raleigh, North Carolina, U.S.A.

Now
54 °F

Passing clouds.


Feels Like: 54 °F
Forecast: 46 / 76 °F
Wind: No wind

Location: Raleigh-Durham International Airport

Current Time: Apr 22, 2015 at 12:46:19 AM

Latest Report: Apr 21, 2015 at 11:51 PM


Visibility: 10 mi

Pressure: 29.90 "Hg

Humidity: 74%

Dew point: 46 °F

Location of RaleighLocation

Historic Weather in Raleigh — Graph

°F

Raleigh temperature yesterday

Maximum temperature yesterday: 70 °F (at 5:51 PM)
Minimum temperature yesterday: 54 °F (at 7:51 AM)
Average temperature yesterday: 62 °F

Past Weeks' High & Low Weather Summary

 TemperatureHumidityPressure
High84 °F (Apr 8, 3:51 PM)97% (Apr 8, 1:51 AM)30.36 "Hg (Apr 8, 1:51 AM)
Low48 °F (Apr 12, 2:51 AM)27% (Apr 11, 4:51 PM)29.64 "Hg (Apr 20, 5:51 PM)
Average66 °F74%30.07 "Hg
* Reported Apr 6 10:51 PM — Apr 21 10:51 PM, Raleigh, Weather by CustomWeather, © 2015

Note: Actual official high and low records may vary slightly from our data, if they occured in-between our weather recording intervals... More about our weather records

Advertising

Raleigh weather history for previous 24 hours

 ConditionsComfort  
Time TempWeatherWind HumidityBarometerVisibility
10:51 PM
Tue, Apr 21
55 °FPassing clouds.No wind69%29.90 "Hg10 mi
9:51 PM58 °FPassing clouds.No wind65%29.88 "Hg10 mi
8:51 PM60 °FScattered clouds.3 mph52%29.87 "Hg10 mi
7:51 PM63 °FScattered clouds.5 mph47%29.84 "Hg10 mi
6:51 PM67 °FScattered clouds.8 mph37%29.82 "Hg10 mi
5:51 PM70 °FScattered clouds.12 mph39%29.81 "Hg10 mi
4:51 PM69 °FScattered clouds.6 mph39%29.81 "Hg10 mi
3:51 PM66 °FScattered clouds.10 mph45%29.82 "Hg10 mi
2:51 PM65 °FScattered clouds.7 mph44%29.84 "Hg10 mi
1:51 PM66 °FScattered clouds.10 mph39%29.86 "Hg10 mi
12:51 PM66 °FScattered clouds.8 mph45%29.87 "Hg10 mi
11:51 AM65 °FPassing clouds.6 mph44%29.90 "Hg10 mi
10:51 AM63 °FPassing clouds.9 mph45%29.90 "Hg10 mi
9:51 AM61 °FPassing clouds.5 mph52%29.88 "Hg10 mi
8:51 AM59 °FPassing clouds.3 mph67%29.87 "Hg10 mi
7:51 AM54 °FPassing clouds.No wind72%29.85 "Hg10 mi
6:51 AM55 °FPassing clouds.No wind64%29.83 "Hg10 mi
5:51 AM57 °FPassing clouds.7 mph67%29.80 "Hg10 mi
4:51 AM59 °FPassing clouds.3 mph84%29.78 "Hg10 mi
3:51 AM61 °FPartly cloudy.5 mph97%29.74 "Hg10 mi
2:51 AM63 °FPassing clouds.5 mph93%29.71 "Hg10 mi
1:51 AM62 °FThunderstorms. Partly cloudy.6 mph96%29.70 "Hg9 mi
1:04 AM63 °FStrong thunderstorms. Fog.10 mph94%29.71 "Hg1 mi
12:51 AM64 °FThunderstorms. Passing clouds.7 mph87%29.67 "Hg9 mi
Weather by CustomWeather, © 2015

See weather overviewHow to use our weather pages